{"data":{"norad_id":59137,"intl_designator":"2024-043AR","name":"VSP RF B1","alt_names":[],"object_type":"PAYLOAD","status":"ACTIVE","operator":null,"country":"BEL","launch_date":"2024-03-04","launch_site_code":"AFWTR","launch_vehicle":null,"mission":null,"orbit_class":"UNKNOWN","rcs_meters":null,"size_class":null,"mass_kg":null,"dimensions":null,"purposes":[],"wikipedia_slug":null,"has_3d_model":false,"image_url":null,"decayed_at":null,"tle_current":{"epoch":"2026-09-22T22:51:24.114816Z","epoch_age_seconds":46046,"freshness":"FRESH","line1":"1 59137U 24043AR  26265.95236244  .00002295  00000+0  10146-3 0  9996","line2":"2 59137  97.5751  43.8696 0001012  80.1892 279.9458 15.22743244141913","mean_motion":15.22743244,"eccentricity":0.0001012,"inclination_deg":97.5751,"raan_deg":43.8696,"arg_perigee_deg":80.1892,"mean_anomaly_deg":279.9458,"bstar":0.00010146,"rev_number":14191,"period_min":94.566172312632,"perigee_km":496.87458420168,"apogee_km":498.26622738062,"semimajor_km":6875.7074057912,"source":"CELESTRAK","updated_at":"2026-09-23T09:00:19.182697Z"}}}